Miscellaneous Local Product
Issued by NWS Hastings, NE

Home | Current Version | Previous Version | Graphics & Text | Print | Product List | Glossary On
Versions: 1 2 3 4 5 6 7 8 9 10 11 12 13 14 15 16 17 18 19 20 21 22 23 24 25 26 27 28 29 30 31 32 33 34 35 36 37 38 39 40 41 42 43 44 45 46 47 48 49 50
000
AXUS43 KGID 301702
MISGRI

GID CWA HOURLY WEATHER ROUNDUP
NATIONAL WEATHER SERVICE HASTINGS NE
1200 PM CDT SAT APR 30 2016

NOTE: "FAIR" INDICATES FEW OR NO CLOUDS BELOW 12,000 FEET WITH NO
SIGNIFICANT WEATHER AND/OR OBSTRUCTIONS TO VISIBILITY.

...SOUTH CENTRAL NEBRASKA...

CITY           SKY/WX    TMP DP  RH WIND       PRES   REMARKS
GRAND ISLAND   CLOUDY    44  42  93 NE15      29.73S
HASTINGS       CLOUDY    45  42  89 NE10      29.72S
KEARNEY        CLOUDY    43  39  87 N14       29.75R
ORD            LGT RAIN  42  40  92 NE16      29.77F FOG
YORK           CLOUDY    46  45  93 NE9       29.72R FOG
AURORA         CLOUDY    45  45  99 NE14      29.72R FOG
LEXINGTON      CLOUDY    39  36  87 N15       29.78S WCI  31
HOLDREGE       CLOUDY    42  41  93 N8        29.75S FOG
HEBRON         CLOUDY    48  46  93 N3        29.71R FOG

...NEBRASKA PANHANDLE...

CITY           SKY/WX    TMP DP  RH WIND       PRES   REMARKS
CHADRON        LGT RAIN  40  37  89 NE25      30.02R FOG     WCI  29
ALLIANCE       LGT SNOW  34  32  92 N22       29.91R VSB 3/4 WCI  22
SCOTTSBLUFF    LGT RAIN  36  32  85 N16       29.97R WCI  26
SIDNEY         SNOW      34  32  92 N23       29.90R VSB 1/2 WCI  22

...WESTERN AND NORTH CENTRAL NEBRASKA...

CITY           SKY/WX    TMP DP  RH WIND       PRES   REMARKS
VALENTINE      LGT RAIN  39  36  89 NE23G31   29.92S WCI  28
AINSWORTH      SNOW      33  33  99 NE13      29.88S VSB 1/2 WCI  24
ONEILL         RAIN      40  38  93 NE17G30   29.84R WCI  31
BROKEN BOW     LGT RAIN  37  35  92 N21G29    29.79R FOG     WCI  26
IMPERIAL       LGT SNOW  35  33  92 N20       29.84S FOG     WCI  24
NORTH PLATTE   LGT SNOW  35  33  92 N18       29.82R FOG     WCI  24
MCCOOK         LGT RAIN  38  36  92 N15       29.81R WCI  29

...EASTERN NEBRASKA...

CITY           SKY/WX    TMP DP  RH WIND       PRES   REMARKS
NORFOLK        CLOUDY    43  41  93 NE14G22   29.77R FOG
SO SIOUX CITY  CLOUDY    46  41  82 E20G29    29.78R
TEKAMAH        LGT RAIN  46  44  93 NE14      29.75S FOG
COLUMBUS       CLOUDY    46  37  71 NE15      29.74S
ALBION         CLOUDY    44  42  94 NE16G23   29.76F FOG
OMAHA EPPLEY   DRIZZLE   48  46  93 E8        29.72S FOG
MILLARD        DRIZZLE   48  47  94 E3        29.71S
LINCOLN        CLOUDY    49  47  93 NE13      29.72R FOG
NEBRASKA CITY  DRIZZLE   51  51 100 E5        29.69R
BEATRICE       CLOUDY    49  48  96 N5        29.69S FOG
FALLS CITY     CLOUDY    56  54  93 SE6       29.66R FOG

...NORTHERN KANSAS...

CITY           SKY/WX    TMP DP  RH WIND       PRES   REMARKS
GOODLAND       CLOUDY    36  33  89 NW14      29.83R WCI  27
HILL CITY      CLOUDY    44  39  82 NW17      29.79S
NORTON         CLOUDY    39  36  87 NW14      29.77S FOG     WCI  31
PHILLIPSBURG   CLOUDY    46  45  93 W14       29.77R
SMITH CENTER   CLOUDY    45  45 100 W8        29.75R FOG
BELOIT         CLOUDY    48  45  87 W12       29.73S
HAYS           CLOUDY    48  37  66 W16       29.77S
RUSSELL        CLOUDY    51  45  79 W16       29.74S
CONCORDIA      CLOUDY    51  47  86 W10       29.71R
SALINA         CLOUDY    57  47  69 W13       29.75R
TOPEKA         CLOUDY    57  50  77 SW8       29.70R



USA.gov is the U.S. government's official web portal to all federal, state and local government web resources and services.